[[{"header":{"parameterUnit":"m.s-1","parameterCategory":1,"la1":30.2991,"la2":30.254,"lo1":-89.0895,"lo2":-89.0444,"dy":0.0017,"dx":0.0017,"nx":28,"ny":28,"refTime":"2025-02-23T03:00:00:Z","depth":0,"parameterNumber":2,"parameterNumberName":"U-component_of_WINDS"},"data":[0,0,0,0,0,0,0,0,0,0,0,0,0,0,0,0,0,0,0,0,0,0,0,0,0,0,0,0,0,0,0,0,0,0,0,0,0,0,0,0,0,0,0,0,0,0,0,0,0,0,0,0,0,0,0,0,0,0,-5.7392,-5.7393,0,-5.7453,-5.7454,-5.7455,-5.7264,-5.7259,-5.7253,-5.7247,-5.7313,-5.732,-5.7327,0,0,0,0,0,0,0,0,0,0,0,0,0,-5.7112,-5.7118,-5.7392,-5.7393,-5.7393,-5.7453,-5.7454,-5.7455,-5.7265,-5.7258,-5.7251,-5.7245,-5.7311,-5.7319,-5.7328,0,0,0,0,0,0,0,0,0,0,0,0,0,-5.721,-5.712,-5.7392,-5.7306,-5.7299,-5.7453,-5.7454,-5.7455,-5.7267,-5.7258,-5.7249,-5.7241,-5.7308,-5.7318,-5.7329,-5.757,0,0,-5.7362,-5.7366,0,0,0,0,0,0,0,0,-5.7204,-5.722,-5.7318,-5.7312,-5.7304,-5.7342,-5.7379,-5.7494,-5.7269,-5.7279,-5.7247,-5.7237,-5.733,-5.7338,-5.7369,-5.7573,-5.7575,-5.7363,-5.7369,-5.7374,-5.7377,0,0,0,0,0,0,0,-5.7198,-5.7216,-5.7416,-5.7319,-5.7311,-5.7265,-5.7269,-5.74,-5.7353,-5.7278,-5.7264,-5.7274,-5.7325,-5.7359,-5.7369,-5.7576,-5.7362,-5.7372,-5.7379,-5.7383,-5.7979,-5.7988,0,0,0,0,0,0,-5.7202,-5.7212,-5.7414,-5.7418,-5.7232,-5.7277,-5.7282,-5.7339,-5.7351,-5.7344,-5.7281,-5.7265,-5.7345,-5.7357,-5.7371,-5.7653,-5.7374,-5.7384,-5.739,-5.797,-5.7981,-5.7992,0,0,0,0,0,0,-5.7197,-5.7222,-5.7412,-5.7311,-5.7332,-5.7291,-5.7357,-5.7345,-5.7379,-5.7353,-5.7344,-5.7325,-5.7339,-5.7356,-5.7521,-5.7653,-5.7389,-5.7398,-5.7959,-5.7974,-5.7987,-5.822,0,0,0,0,0,0,-5.7189,-5.7221,-5.7312,-5.7315,-5.7338,-5.7562,-5.7365,-5.7352,-5.7398,-5.7377,-5.7392,-5.7386,-5.7333,-5.7506,-5.7532,-5.7663,-5.7407,-5.7947,-5.7965,-5.7982,-5.8201,-5.8241,-5.8275,0,0,0,0,0,-5.718,-5.7376,-5.7317,-5.7343,-5.7451,-5.7569,-5.7583,-5.7517,-5.7409,-5.75,-5.7483,-5.7386,-5.7634,-5.7525,-5.7552,-5.7688,-5.7938,-5.796,-5.7981,-5.8184,-5.8233,-5.8274,0,0,0,0,0,0,-5.7391,-5.7375,-5.731,-5.7512,-5.7544,-5.7537,-5.765,-5.7571,-5.7634,-5.7612,-5.7528,-5.7533,-5.7714,-5.7717,-5.7596,-5.7921,-5.7768,-5.7795,-5.7913,-5.7959,-5.7995,-5.7992,-5.7416,0,0,0,0,0,-5.7461,-5.7558,-5.7538,-5.7719,-5.7738,-5.7692,-5.7741,-5.7687,-5.7717,-5.7729,-5.7725,-5.7758,-5.7842,-5.79,-5.7977,-5.8199,-5.82,-5.8306,-5.8343,-5.8374,-5.84,-5.8517,-5.8564,-5.8061,-5.8061,-5.8061,0,0,-5.7607,-5.761,-5.7676,-5.7762,-5.7779,-5.7883,-5.7704,-5.7821,-5.7897,-5.7747,-5.7903,-5.7901,-5.7932,-5.8127,-5.8212,-5.8135,-5.8538,-5.8401,-5.8426,-5.8434,-5.8544,-5.8591,-5.8634,-5.8075,-5.8073,-5.8071,0,0,-5.7925,-5.7937,-5.8088,-5.811,-5.8138,-5.8106,-5.8143,-5.8148,-5.8141,-5.8295,-5.8185,-5.8274,-5.8422,-5.8449,-5.8482,-5.8809,-5.8722,-5.8836,-5.9031,-5.9146,-5.9186,-5.9221,-5.9338,-5.9381,-5.8861,-5.8862,-5.8862,0,-5.8103,-5.8253,-5.8177,-5.8301,-5.8342,-5.8209,-5.8363,-5.8387,-5.8441,-5.8472,-5.8384,-5.8567,-5.8578,-5.8777,-5.8857,-5.8888,-5.8927,-5.8835,-5.9186,-5.922,-5.9252,-5.9363,-5.9407,-5.8876,-5.8874,-5.8873,-5.8872,0,-5.8471,-5.8577,-5.8696,-5.8749,-5.8803,-5.8942,-5.8887,-5.895,-5.8892,-5.8869,-5.9028,-5.9037,-5.9113,-5.9156,-5.91,-5.9348,-5.9299,-5.92,-5.9045,-5.9315,-5.9418,-5.946,-5.8896,-5.8891,-5.8887,-5.8883,0,0,-5.8926,-5.8934,-5.8979,-5.9002,-5.9023,-5.9104,-5.9236,-5.9309,-5.9366,-5.9406,-5.9515,-5.9643,-5.9552,-5.9589,-5.9535,-5.9637,-5.9896,-5.9525,-5.9524,-5.9594,-6.0169,-6.0244,-6.0295,-5.9837,-5.9845,-5.9851,-6.0167,0,-5.924,-5.9465,-5.94,-5.9626,-5.9723,-5.9598,-5.9713,-5.9739,-5.9721,-5.9801,-5.978,-5.9873,-5.9745,-5.9766,-5.9861,-5.9844,-6.001,-5.982,-5.9939,-5.9944,-5.9936,-6.0348,-6.0428,-6.0726,-6.0206,-6.0213,-6.0218,0,-5.9637,-5.9692,-5.9928,-5.9933,-5.9971,-6.0076,-6.0137,-6.0215,-6.0241,-6.0221,-6.0263,-6.0187,-6.0317,-6.016,-6.0338,-6.021,-6.0254,-6.0253,-6.0263,-6.0273,-6.0099,-6.037,-6.0819,-6.0865,-6.028,-6.0275,-6.0271,0,-5.9946,-6.0079,-6.0238,-6.0261,-6.027,-6.0346,-6.0354,-6.0371,-6.0419,-6.0473,-6.0504,-6.0573,-6.0611,-6.0666,-6.0611,-6.0502,-6.0798,-6.0636,-6.0786,-6.0788,-6.0855,-6.0852,-6.1319,-6.0882,-6.0882,-6.0881,-6.088,0,-6.0304,-6.0454,-6.0376,-6.0475,-6.0638,-6.0561,-6.0726,-6.0719,-6.0736,-6.083,-6.0726,-6.0817,-6.0738,-6.0822,-6.078,-6.0934,-6.0952,-6.094,-6.0927,-6.095,-6.0952,-6.0979,-6.0958,-6.0892,-6.089,-6.0888,-6.0886,0,-6.0678,-6.0632,-6.0797,-6.0791,-6.0793,-6.0915,-6.091,-6.1,-6.0973,-6.1095,-6.1118,-6.1078,-6.1171,-6.1121,-6.1218,-6.1189,-6.1389,-6.1348,-6.1381,-6.137,-6.1523,-6.151,-6.2025,-6.2089,-6.161,-6.1615,-6.1619,0,-6.0911,-6.1023,-6.1029,-6.1084,-6.1098,-6.1189,-6.1237,-6.1165,-6.122,-6.1258,-6.1344,-6.1428,-6.1492,-6.1647,-6.1626,-6.1699,-6.166,-6.1835,-6.167,-6.169,-6.1663,-6.1658,-6.1669,-6.1869,-6.1875,-6.1879,-6.1883,0,-6.1328,-6.13,-6.1373,-6.1439,-6.1499,-6.1547,-6.1587,-6.1638,-6.1567,-6.1634,-6.1727,-6.1777,-6.1874,-6.196,-6.2022,-6.203,-6.1946,-6.1934,-6.1973,-6.1999,-6.2013,-6.2008,-6.1473,-6.1923,-6.1919,-6.1916,-6.1914,-6.1913,-6.1639,-6.1733,-6.1752,-6.1836,-6.1858,-6.1898,-6.1982,-6.1966,-6.2042,-6.2116,-6.2069,-6.2179,-6.2202,-6.2277,-6.2296,-6.2381,-6.2311,-6.2367,-6.2382,-6.2397,-6.2418,-6.1998,-6.2392,-6.2391,-6.239,-6.2389,-6.2388,0,-6.2052,-6.2057,-6.2136,-6.2194,-6.2261,-6.2174,-6.2213,-6.2275,-6.2374,-6.2402,-6.2466,-6.2574,-6.2655,-6.264,-6.2714,-6.2786,-6.2749,-6.2808,-6.2803,-6.2806,-6.2476,-6.2436,-6.2836,-6.2836,-6.2836,-6.2836,-6.2836,-6.2836,-6.2274,-6.2428,-6.2402,-6.2566,-6.257,-6.2677,-6.2707,-6.2743,-6.2764,-6.2889,-6.2956,-6.2945,-6.2956,-6.303,-6.3101,-6.3094,-6.3127,-6.3201,-6.3181,-6.2873,-6.2829,-6.2787,-6.2748,-6.3208,-6.3209,-6.3503,-6.3506,-6.3508]},{"header":{"parameterUnit":"m.s-1","parameterCategory":1,"la1":30.2991,"la2":30.254,"lo1":-89.0895,"lo2":-89.0444,"dy":0.0017,"dx":0.0017,"nx":28,"ny":28,"refTime":"2025-02-23T03:00:00:Z","depth":0,"parameterNumber":3,"parameterNumberName":"V-component_of_WINDS"},"data":[0,0,0,0,0,0,0,0,0,0,0,0,0,0,0,0,0,0,0,0,0,0,0,0,0,0,0,0,0,0,0,0,0,0,0,0,0,0,0,0,0,0,0,0,0,0,0,0,0,0,0,0,0,0,0,0,0,0,-2.979,-2.9789,0,-2.9645,-2.9643,-2.9641,-2.9537,-2.9537,-2.9536,-2.9535,-2.9383,-2.938,-2.9377,0,0,0,0,0,0,0,0,0,0,0,0,0,-2.9973,-2.997,-2.979,-2.9789,-2.9787,-2.9645,-2.9643,-2.9641,-2.9538,-2.9537,-2.9536,-2.9535,-2.9384,-2.9381,-2.9377,0,0,0,0,0,0,0,0,0,0,0,0,0,-2.9867,-2.9969,-2.9791,-2.9718,-2.971,-2.9645,-2.9643,-2.964,-2.9538,-2.9537,-2.9535,-2.9534,-2.9386,-2.9381,-2.9376,-2.9371,0,0,-2.9361,-2.9359,0,0,0,0,0,0,0,0,-2.9873,-2.9861,-2.9731,-2.9723,-2.9714,-2.9608,-2.9652,-2.955,-2.9538,-2.9603,-2.9535,-2.9534,-2.9459,-2.9448,-2.9423,-2.9364,-2.9357,-2.9361,-2.9358,-2.9356,-2.9354,0,0,0,0,0,0,0,-2.9881,-2.9866,-2.9733,-2.9729,-2.9719,-2.9691,-2.9674,-2.9632,-2.954,-2.9597,-2.959,-2.9574,-2.9454,-2.9428,-2.9419,-2.9355,-2.9361,-2.9357,-2.9354,-2.9352,-2.9278,-2.9279,0,0,0,0,0,0,-2.99,-2.9873,-2.9737,-2.9728,-2.9792,-2.9689,-2.967,-2.9643,-2.954,-2.9523,-2.9575,-2.957,-2.9437,-2.9425,-2.9413,-2.9396,-2.9356,-2.9351,-2.9348,-2.9277,-2.9278,-2.9279,0,0,0,0,0,0,-2.9904,-2.9889,-2.9743,-2.9798,-2.9778,-2.9687,-2.9657,-2.9641,-2.9615,-2.9523,-2.9506,-2.9566,-2.9436,-2.942,-2.9381,-2.939,-2.9349,-2.9344,-2.9276,-2.9277,-2.9279,-2.9366,0,0,0,0,0,0,-2.991,-2.9891,-2.989,-2.9799,-2.9775,-2.9716,-2.9658,-2.9639,-2.9607,-2.9599,-2.951,-2.9494,-2.9434,-2.9389,-2.9376,-2.9382,-2.9341,-2.9275,-2.9277,-2.9278,-2.9362,-2.937,-2.9377,0,0,0,0,0,-2.9917,-2.9921,-2.9891,-2.9875,-2.9772,-2.9717,-2.9703,-2.9634,-2.9609,-2.9605,-2.9545,-2.9497,-2.9391,-2.9386,-2.9371,-2.9376,-2.9274,-2.9276,-2.9278,-2.9358,-2.9369,-2.9377,0,0,0,0,0,0,-3.0016,-2.9908,-2.9873,-2.9848,-2.9792,-2.9699,-2.9693,-2.9648,-2.9597,-2.9591,-2.9507,-2.9487,-2.9456,-2.9412,-2.9408,-2.9362,-2.9326,-2.9325,-2.9392,-2.9401,-2.9409,-2.9419,-2.9337,0,0,0,0,0,-3.0035,-3.0,-2.9907,-2.9894,-2.9868,-2.9786,-2.9759,-2.971,-2.9648,-2.9624,-2.9561,-2.9502,-2.9455,-2.9426,-2.9378,-2.9355,-2.9332,-2.935,-2.9358,-2.9365,-2.9365,-2.9344,-2.935,-2.9286,-2.9286,-2.9286,0,0,-3.0073,-3.001,-2.9993,-2.9912,-2.9863,-2.9826,-2.9766,-2.9731,-2.9702,-2.9618,-2.9577,-2.9529,-2.9457,-2.9425,-2.9407,-2.9387,-2.9377,-2.9368,-2.9374,-2.937,-2.9347,-2.9353,-2.9359,-2.9288,-2.9288,-2.9287,0,0,-3.0124,-3.0075,-3.0056,-3.0007,-2.9933,-2.9878,-2.9874,-2.9786,-2.9751,-2.9708,-2.9643,-2.9606,-2.9528,-2.9478,-2.9442,-2.947,-2.9422,-2.9456,-2.9496,-2.9477,-2.9482,-2.9486,-2.9492,-2.9496,-2.9457,-2.9457,-2.9457,0,-3.0181,-3.0125,-3.0052,-3.002,-2.9984,-2.9906,-2.9884,-2.984,-2.9754,-2.973,-2.9709,-2.9605,-2.9552,-2.9505,-2.9511,-2.9486,-2.9475,-2.9466,-2.9488,-2.9491,-2.9494,-2.9498,-2.9501,-2.9461,-2.9461,-2.946,-2.946,0,-3.0197,-3.0159,-3.0152,-3.007,-3.0034,-3.0008,-2.9928,-2.9899,-2.9853,-2.9799,-2.9753,-2.9686,-2.962,-2.9606,-2.9561,-2.955,-2.9539,-2.9504,-2.9466,-2.9505,-2.9508,-2.951,-2.9468,-2.9466,-2.9465,-2.9464,0,0,-3.0308,-3.0183,-3.0182,-3.0142,-3.0053,-3.002,-2.9988,-2.9924,-2.99,-2.9842,-2.981,-2.9744,-2.9709,-2.9669,-2.9617,-2.9601,-2.9621,-2.9566,-2.9563,-2.9576,-2.9601,-2.9626,-2.963,-2.9589,-2.959,-2.959,-2.9606,0,-3.0343,-3.0282,-3.0214,-3.0176,-3.0137,-3.006,-3.0031,-2.9972,-2.992,-2.9877,-2.9819,-2.9771,-2.9732,-2.9706,-2.9686,-2.9624,-2.9625,-2.9621,-2.9556,-2.9555,-2.9575,-2.9632,-2.966,-2.9678,-2.9607,-2.9607,-2.9607,0,-3.0376,-3.0321,-3.028,-3.019,-3.0171,-3.0147,-3.008,-3.0042,-2.9971,-2.9933,-2.9886,-2.983,-2.9789,-2.9756,-2.9696,-2.9695,-2.9664,-2.9628,-2.9627,-2.9617,-2.9582,-2.9621,-2.9683,-2.9685,-2.9609,-2.9609,-2.9609,0,-3.0457,-3.0373,-3.0335,-3.0304,-3.0199,-3.0183,-3.0139,-3.0067,-3.0031,-2.9972,-2.9947,-2.9885,-2.985,-2.9801,-2.9728,-2.9712,-2.9674,-2.9636,-2.9639,-2.9641,-2.9634,-2.9635,-2.9689,-2.9618,-2.9618,-2.9618,-2.9618,0,-3.0502,-3.0479,-3.037,-3.0347,-3.0317,-3.0237,-3.0209,-3.0157,-3.0093,-3.0056,-2.9986,-2.9952,-2.9859,-2.9813,-2.9756,-2.9712,-2.9698,-2.9664,-2.9648,-2.9669,-2.9673,-2.9646,-2.9642,-2.9618,-2.9618,-2.9618,-2.9618,0,-3.0587,-3.0514,-3.0467,-3.0371,-3.0346,-3.0328,-3.0244,-3.0217,-3.016,-3.0114,-3.0098,-3.0008,-2.995,-2.9872,-2.9791,-2.9752,-2.9714,-2.9692,-2.9738,-2.9729,-2.9734,-2.9734,-2.9772,-2.9771,-2.9704,-2.9705,-2.9705,0,-3.062,-3.06,-3.0501,-3.0471,-3.0429,-3.0383,-3.0345,-3.0264,-3.0227,-3.0143,-3.0125,-3.0062,-3.0007,-2.9918,-2.9843,-2.9779,-2.9753,-2.977,-2.9743,-2.9762,-2.9749,-2.975,-2.9746,-2.9777,-2.9778,-2.9779,-2.978,0,-3.0685,-3.0648,-3.0598,-3.0534,-3.0491,-3.0436,-3.0378,-3.0358,-3.0263,-3.0225,-3.0166,-3.0123,-3.0038,-2.9975,-2.99,-2.9851,-2.9798,-2.9789,-2.9786,-2.9806,-2.9832,-2.9814,-2.9754,-2.9789,-2.9788,-2.9787,-2.9787,-2.9786,-3.0742,-3.0719,-3.0644,-3.0589,-3.0537,-3.0483,-3.0452,-3.0389,-3.0339,-3.0264,-3.0218,-3.0159,-3.0084,-2.9978,-2.9931,-2.9881,-2.9861,-2.9857,-2.9856,-2.9855,-2.986,-2.9842,-2.9868,-2.9867,-2.9867,-2.9867,-2.9867,0,-3.08,-3.0748,-3.0698,-3.0618,-3.0573,-3.0529,-3.0461,-3.0426,-3.0375,-3.031,-3.0257,-3.0185,-3.0123,-3.0042,-2.9973,-2.9948,-2.9922,-2.9933,-2.9932,-2.9921,-2.9884,-2.9893,-2.9955,-2.9955,-2.9955,-2.9955,-2.9955,-2.9955,-3.0825,-3.0782,-3.0736,-3.0665,-3.0612,-3.0554,-3.0518,-3.0467,-3.0414,-3.0338,-3.0286,-3.0234,-3.0161,-3.0085,-3.0024,-3.0001,-2.9978,-2.9995,-2.9965,-2.9932,-2.9924,-2.9917,-2.9924,-2.9991,-2.9991,-3.0005,-3.0005,-3.0005]}]]